Weather History for Fredericksburg, TX

Change the Weather History Date:

Thursday, November 22, 2012

  Actual Average (KSAT) Record (KSAT)
Temperature  
Mean Temperature 62 °F 59 °F  
Max Temperature 73 °F 70 °F 86 °F (1970)
Min Temperature 50 °F 48 °F 30 °F (1945)
Degree Days  
Heating Degree Days 3 7  
Month to date heating degree days 107  
Since 1 July heating degree days 140  
Cooling Degree Days 0 1  
Month to date cooling degree days 54  
Year to date cooling degree days 3109  
Growing Degree Days 12 (Base 50)    
Moisture  
Dew Point 56 °F    
Average Humidity 83    
Maximum Humidity 100    
Minimum Humidity 54    
Precipitation  
Precipitation 0.00 in 0.07 in 3.47 in (2004)
Month to date precipitation 1.79  
Year to date precipitation 29.87  
Snow  
Snow 0.00 in - - ()
Month to date snowfall  
Since 1 July snowfall  
Since 1 September snowfall  
Snow Depth -    
Sea Level Pressure  
Sea Level Pressure 30.13 in    
Wind  
Wind Speed 7 mph (SSW)    
Max Wind Speed 20 mph    
Max Gust Speed 25 mph    
Visibility 10 miles    
Events      
T = Trace of Precipitation, MM = Missing Value Source: NWS Daily Summary

Daily Weather History Graph

Daily Weather History Graph

Search for Another Location

Airport:

Trip Planner

Search our weather history database for the weather conditions in past years. The results will help you decide how hot, cold, wet, or windy it might be!

Date:

Astronomy

Nov. 22, 2012 Rise Set
Actual Time 7:07 AM CST 5:36 PM CST
Civil Twilight 6:41 AM CST 6:01 PM CST
Nautical Twilight 6:12 AM CST 6:31 PM CST
Astronomical Twilight 5:43 AM CST 6:59 PM CST
Moon 2:03 PM CST (11/22) 1:50 AM CST (11/22)
Length of Visible Light 11h 20m
Length of Day
10h 28m
Waxing Gibbous, 71% of the Moon is Illuminated
Nov 22
Waxing Gibbous
Nov 28
Full
Dec 6
Last Quarter
Dec 13
New
Dec 19
First Quarter

Hourly Weather History & Observations

Time (CST) Temp. Dew Point Humidity Pressure Visibility Wind Dir Wind Speed Gust Speed Precip Events Conditions
12:15 AM 57.7 °F 51.8 °F 81% 30.16 in 10.0 mi South 5.8 mph - N/A   Clear
12:35 AM 56.8 °F 51.4 °F 82% 30.16 in 10.0 mi SSW 3.5 mph - N/A   Clear
12:55 AM 56.3 °F 51.3 °F 83% 30.16 in 10.0 mi SW 3.5 mph - N/A   Clear
1:15 AM 55.4 °F 51.1 °F 85% 30.16 in 10.0 mi SSW 5.8 mph - N/A   Clear
1:35 AM 54.9 °F 51.3 °F 88% 30.15 in 10.0 mi South 3.5 mph - N/A   Clear
1:55 AM 54.7 °F 51.4 °F 89% 30.16 in 10.0 mi South 3.5 mph - N/A   Clear
2:15 AM 55.4 °F 52.9 °F 91% 30.16 in 10.0 mi SSW 5.8 mph - N/A   Clear
2:35 AM 56.7 °F 55.4 °F 96% 30.16 in 10.0 mi SW 8.1 mph - N/A   Clear
2:55 AM 57.2 °F 56.1 °F 96% 30.16 in 10.0 mi SW 8.1 mph - N/A   Scattered Clouds
3:15 AM 57.6 °F 56.7 °F 97% 30.16 in 10.0 mi SSW 8.1 mph - N/A   Overcast
3:35 AM 57.4 °F 56.5 °F 97% 30.16 in 10.0 mi SW 10.4 mph - N/A   Mostly Cloudy
3:55 AM 57.0 °F 56.3 °F 97% 30.14 in 10.0 mi SSW 5.8 mph - N/A   Scattered Clouds
4:15 AM 56.8 °F 56.5 °F 99% 30.14 in 10.0 mi SSW 5.8 mph - N/A   Scattered Clouds
4:35 AM 57.4 °F 56.8 °F 98% 30.13 in 10.0 mi South 6.9 mph - N/A   Scattered Clouds
4:55 AM 57.7 °F 57.2 °F 98% 30.12 in 10.0 mi South 6.9 mph - N/A   Clear
5:15 AM 58.1 °F 57.2 °F 97% 30.12 in 10.0 mi South 8.1 mph - N/A   Clear
5:35 AM 57.7 °F 57.2 °F 98% 30.12 in 10.0 mi SSW 10.4 mph - N/A   Clear
5:55 AM 57.6 °F 56.8 °F 97% 30.12 in 10.0 mi SSW 9.2 mph - N/A   Clear
6:15 AM 57.6 °F 57.0 °F 98% 30.12 in 10.0 mi SSW 8.1 mph - N/A   Clear
6:35 AM 57.4 °F 56.8 °F 98% 30.12 in 10.0 mi SW 5.8 mph - N/A   Scattered Clouds
6:55 AM 57.4 °F 56.8 °F 98% 30.14 in 10.0 mi SW 6.9 mph - N/A   Mostly Cloudy
7:15 AM 57.9 °F 57.2 °F 97% 30.13 in 10.0 mi SSW 6.9 mph - N/A   Overcast
7:35 AM 58.5 °F 57.6 °F 97% 30.13 in 10.0 mi SSW 8.1 mph - N/A   Mostly Cloudy
7:55 AM 59.4 °F 58.1 °F 96% 30.14 in 10.0 mi SSW 8.1 mph - N/A   Scattered Clouds
8:15 AM 59.9 °F 58.1 °F 94% 30.14 in 10.0 mi SSW 5.8 mph - N/A   Scattered Clouds
8:35 AM 60.4 °F 58.1 °F 92% 30.16 in 10.0 mi SW 6.9 mph - N/A   Mostly Cloudy
8:55 AM 60.8 °F 58.1 °F 91% 30.14 in 10.0 mi SSW 6.9 mph - N/A   Mostly Cloudy
9:15 AM 61.7 °F 57.9 °F 87% 30.16 in 10.0 mi SSW 10.4 mph - N/A   Scattered Clouds
9:35 AM 62.1 °F 57.7 °F 86% 30.16 in 10.0 mi SW 8.1 mph - N/A   Scattered Clouds
9:55 AM 62.6 °F 57.7 °F 84% 30.16 in 10.0 mi SSW 10.4 mph - N/A   Scattered Clouds
10:15 AM 63.9 °F 57.6 °F 80% 30.17 in 10.0 mi SW 16.1 mph 20.7 mph N/A   Scattered Clouds
10:35 AM 64.8 °F 57.9 °F 78% 30.17 in 10.0 mi SW 16.1 mph 21.9 mph N/A   Scattered Clouds
10:55 AM 64.4 °F 57.2 °F 77% 30.18 in 10.0 mi SW 19.6 mph 23.0 mph N/A   Mostly Cloudy
11:15 AM 66.4 °F 57.4 °F 73% 30.16 in 10.0 mi South 15.0 mph 24.2 mph N/A   Scattered Clouds
11:35 AM 68.0 °F 57.6 °F 69% 30.15 in 10.0 mi South 16.1 mph - N/A   Scattered Clouds
11:55 AM 69.1 °F 56.8 °F 65% 30.15 in 10.0 mi SSW 13.8 mph 20.7 mph N/A   Scattered Clouds
12:15 PM 70.2 °F 56.8 °F 63% 30.13 in 10.0 mi South 19.6 mph 25.3 mph N/A   Mostly Cloudy
12:35 PM 70.0 °F 57.0 °F 63% 30.12 in 10.0 mi SSW 12.7 mph 23.0 mph N/A   Scattered Clouds
12:55 PM 70.0 °F 57.2 °F 64% 30.11 in 10.0 mi SSW 15.0 mph 23.0 mph N/A   Mostly Cloudy
1:15 PM 69.6 °F 57.0 °F 64% 30.11 in 10.0 mi SW 17.3 mph - N/A   Mostly Cloudy
1:35 PM 72.0 °F 57.6 °F 60% 30.09 in 10.0 mi SSW 17.3 mph 23.0 mph N/A   Scattered Clouds
1:55 PM 71.2 °F 56.7 °F 60% 30.09 in 10.0 mi SSW 13.8 mph 20.7 mph N/A   Mostly Cloudy
2:15 PM 72.7 °F 56.3 °F 56% 30.08 in 10.0 mi SSW 18.4 mph - N/A   Scattered Clouds
2:35 PM 72.9 °F 56.3 °F 56% 30.08 in 10.0 mi SW 13.8 mph 18.4 mph N/A   Scattered Clouds
2:55 PM 73.8 °F 56.3 °F 54% 30.07 in 10.0 mi SSW 13.8 mph 19.6 mph N/A   Scattered Clouds
3:15 PM 73.0 °F 56.1 °F 55% 30.07 in 10.0 mi SSW 16.1 mph - N/A   Scattered Clouds
3:55 PM 72.5 °F 56.5 °F 57% 30.06 in 10.0 mi SSW 12.7 mph 17.3 mph N/A   Scattered Clouds
4:15 PM 72.5 °F 56.8 °F 58% 30.06 in 10.0 mi SSW 12.7 mph - N/A   Clear
4:35 PM 72.3 °F 56.7 °F 58% 30.06 in 10.0 mi SSW 11.5 mph 20.7 mph N/A   Clear
4:55 PM 71.6 °F 56.7 °F 59% 30.06 in 10.0 mi South 10.4 mph 16.1 mph N/A   Clear
5:15 PM 70.7 °F 56.7 °F 61% 30.07 in 10.0 mi South 11.5 mph - N/A   Clear
5:35 PM 69.4 °F 56.7 °F 64% 30.07 in 10.0 mi South 5.8 mph - N/A   Clear
5:55 PM 67.1 °F 56.3 °F 68% 30.08 in 10.0 mi South 3.5 mph - N/A   Clear
6:35 PM 65.1 °F 56.3 °F 73% 30.09 in 10.0 mi South 3.5 mph - N/A   Clear
6:55 PM 63.5 °F 56.1 °F 77% 30.10 in 10.0 mi South 4.6 mph - N/A   Clear
7:15 PM 64.6 °F 56.5 °F 75% 30.10 in 10.0 mi Calm Calm - N/A   Clear
7:55 PM 57.4 °F 53.4 °F 87% 30.11 in 10.0 mi Calm Calm - N/A   Clear
8:35 PM 54.7 °F 53.2 °F 95% 30.13 in 10.0 mi Calm Calm - N/A   Clear
8:55 PM 55.0 °F 53.1 °F 93% 30.13 in 10.0 mi Calm Calm - N/A   Clear
9:15 PM 54.0 °F 52.9 °F 96% 30.13 in 10.0 mi Calm Calm - N/A   Clear
9:35 PM 51.8 °F 50.9 °F 97% 30.13 in 10.0 mi Calm Calm - N/A   Clear
9:55 PM 53.4 °F 52.3 °F 96% 30.14 in 10.0 mi NNW 3.5 mph - N/A   Clear
10:15 PM 52.9 °F 52.2 °F 97% 30.14 in 10.0 mi Calm Calm - N/A   Clear
10:35 PM 52.2 °F 51.6 °F 98% 30.14 in 10.0 mi Calm Calm - N/A   Clear
10:55 PM 52.7 °F 52.0 °F 97% 30.14 in 10.0 mi Calm Calm - N/A   Clear
11:15 PM 51.1 °F 50.2 °F 97% 30.14 in 10.0 mi Calm Calm - N/A   Clear
11:35 PM 51.1 °F 51.1 °F 100% 30.15 in 10.0 mi Calm Calm - N/A   Clear
11:55 PM 50.7 °F 50.2 °F 98% 30.15 in 10.0 mi Calm Calm - N/A   Clear